Regional Weather Roundup
Issued by NWS Upton, NY

Current Version | Previous Version | Text Only | Print | Product List | Glossary On
Versions: 1 2 3 4 5 6 7 8 9 10 11 12 13 14 15 16 17 18 19 20 21 22 23 24 25 26 27 28 29 30 31 32 33 34 35 36 37 38 39 40 41 42 43 44 45 46 47 48 49 50
000 ASUS41 KOKX 230708 RWROKX REGIONAL WEATHER ROUNDUP NATIONAL WEATHER SERVICE NEW YORK NY 200 AM EST THU NOV 23 2017 NOTE: "FAIR" INDICATES FEW OR NO CLOUDS BELOW 12,000 FEET WITH NO SIGNIFICANT WEATHER AND/OR OBSTRUCTIONS TO VISIBILITY. NYZ071-072-176-178-NJZ106-104-230800- NEW YORK CITY METRO AREA CITY SKY/WX TMP DP RH WIND PRES REMARKS Central Park CLEAR 34 19 54 VRB7 30.11R WCI 28 Bronx Bot Gard N/A 32 19 59 S3 30.11R Bronx Lehman C N/A 32 32 100 W9 N/A WCI 24 LaGuardia APRT CLEAR 36 21 54 NW12G21 30.09R WCI 28 Queens College N/A 34 32 93 W10 N/A WCI 26 Kennedy INTL CLEAR 33 20 58 NW15 30.10R WCI 23 Breezy Point N/A 34 N/A N/A NW10G18 N/A WCI 26 Brooklyn Coll N/A 34 32 93 NW9 N/A WCI 26 Staten Island N/A 32 32 100 NW9 N/A WCI 24 Newark/Liberty CLEAR 33 19 56 W10 30.11R WCI 25 Teterboro CLEAR 33 19 56 VRB6 30.09R WCI 28 $$ NYZ177-179-078>081-230800- LONG ISLAND NEW YORK CITY SKY/WX TMP DP RH WIND PRES REMARKS Jones Beach N/A 36 N/A N/A NW18G26 N/A WCI 25 Wantagh N/A 34 32 93 NW8 N/A WCI 27 Matinecock PT N/A 36 N/A N/A NW18 N/A WCI 25 Farmingdale CLEAR 33 22 63 NW8 30.07R WCI 26 MacArthur/ISP MOCLDY 35 25 66 W7 30.05R WCI 29 Shirley CLEAR 35 26 69 N9 30.05R WCI 28 Mt Sinai Harb N/A N/A N/A N/A NW10G20 N/A Westhampton MOCLDY 36 25 64 NW12 30.04F WCI 28 East Hampton FAIR 35 24 64 NW8 30.02S WCI 28 Southold N/A 36 32 87 NW10 N/A WCI 28 Montauk N/A 39 25 57 NW15G25 30.02R WCI 31 $$ NYZ052-065-067-230800- HUDSON VALLEY CITY SKY/WX TMP DP RH WIND PRES REMARKS White Plains CLEAR 32 20 61 NW15G22 30.04S WCI 22 Larchmont Harb N/A 34 N/A N/A W10 N/A WCI 26 Croton On Huds N/A 34 N/A N/A NW7G13 N/A WCI 28 Somers N/A 32 32 100 W5 N/A WCI 27 Brewster N/A 30 32 100 N6 N/A WCI 24 Newburgh CLEAR 30 21 69 NW12 30.07S WCI 21 Montgomery CLEAR 30 18 60 CALM 30.07F Suffern N/A 32 32 100 NW5 N/A WCI 27 Poughkeepsie CLEAR 30 19 63 NW6 30.07S WCI 24 Albany CLOUDY 33 22 63 W15 30.09R WCI 23 $$ NJZ001-105-106-008-010-013-015-019>022-104-230800- NEW JERSEY CITY SKY/WX TMP DP RH WIND PRES REMARKS Newark/Liberty CLEAR 33 19 56 W10 30.11R WCI 25 Teterboro CLEAR 33 19 56 VRB6 30.09R WCI 28 Caldwell CLEAR 31 19 61 W3 30.11R Somerville CLEAR 31 20 63 CALM 30.10S Linden FAIR 32 19 59 NW8 30.11S WCI 25 Perth Amboy N/A 34 N/A N/A NW9 N/A WCI 26 Sussex PTCLDY 31 18 58 CALM 30.09S Andover N/A 29 19 66 CALM 30.09S Trenton CLEAR 32 20 61 NW8 30.10F WCI 25 Millville CLEAR 32 24 72 W5 30.12R WCI 27 Atlantic City CLEAR 34 24 67 W3 30.12R Wrightstown CLEAR 32 21 65 NW6 30.08S WCI 26 Toms River CLEAR 31 23 72 NW7 30.11R WCI 24 Belmar PTCLDY 31 23 72 NW7 30.10S WCI 24 $$ PAZ047>061-062-071-230800- EASTERN PENNSYLVANIA CITY SKY/WX TMP DP RH WIND PRES REMARKS Philadelphia CLEAR 35 21 56 NW6 30.13S WCI 30 Allentown CLEAR 30 18 60 NW8 30.14R WCI 22 Scranton CLOUDY 28 16 60 NW7 30.12R WCI 21 $$ CTZ002-004>006-009-010-012-RIZ004-006-007-MAZ004-011-015-230800- SOUTHERN NEW ENGLAND IN CT CITY SKY/WX TMP DP RH WIND PRES REMARKS Bradley INTL PTCLDY 31 21 66 NW6 30.03R WCI 25 Hartford PTCLDY 35 22 58 NW7 30.04S WCI 29 Danbury PTCLDY 32 22 66 N5 30.05S WCI 27 Wtrbury/Oxford CLOUDY 32 23 69 NW12 30.02S WCI 23 Norwalk Harbor N/A 34 N/A N/A W9 N/A WCI 26 Bridgeport CLEAR 35 22 58 NW9 30.05S WCI 28 Meriden PTCLDY 33 22 63 NW8 30.03F WCI 26 New Haven CLEAR 36 23 59 NW10 30.04R WCI 28 Chester FAIR 32 23 69 NW8 30.00S WCI 25 Groton CLEAR 35 21 56 NW8 30.01R WCI 29 Wilimantic CLEAR 35 22 58 NW10G17 30.01R WCI 27 IN RI CITY SKY/WX TMP DP RH WIND PRES REMARKS Providence CLEAR 37 24 59 NW14 29.99R WCI 28 Block Island PTCLDY 38 26 62 NW10G18 30.00R WCI 31 Westerly CLEAR 36 25 64 NW6 30.00R WCI 31 IN MA CITY SKY/WX TMP DP RH WIND PRES REMARKS Boston CLEAR 36 22 56 NW15G24 29.97R WCI 27 Worcester CLEAR 30 19 63 NW14 29.95R WCI 19 Westfield CLEAR 33 20 58 N12 30.02R WCI 24 Provincetown PTCLDY 38 28 67 NW22G29 29.94R WCI 27 Nantucket MOCLDY 39 31 72 NW17 29.95R WCI 30 $$ ANZ330-335-338-340-345-350-353-355-230800- COASTAL MARINE OBSERVATIONS STATION/POSITION TIME SKY/WX TEMP WIND PRES VSBY WAVE AIR SEA DIR/SP/G HT/PER (UTC) (F) (DEG/KT/KT) (MB) (MI) (FT/S) NY HARB ENTRANCE 0650 39 56 330/ 19/ 25 1017.4 3/ 4 20 S FIRE ISLAND 0650 40 56 330/ 17/ 23 1017.4 5/ 9 GREAT SOUTH BAY 0615 37 45 290/ 10/ 12 N/A HUDSON CANYON 0650 44 58 330/ 16/ 21 1017.1 8/ 7 KINGS POINT 0636 49 360/ 13/ 16 1019.7 EXECUTION ROCKS 0630 37 300/ 14/ 19 N/A WESTERN LI SOUND 0549 38 300/ 14/ 19 N/A 1/ 2 CENTRAL LI SOUND 0615 39 330/ 17/ 25 N/A 3 ROBBINS REEF 0642 300/ 13/ 18 1019.6 $$ >>>>>>>>>>>>>>>>>>>>>>>>>>>> KEY <<<<<<<<<<<<<<<<<<<<<<<<<<< > < > SKY/WX - Sky Condition/Present Weather < > TMP - Temperature in Fahrenheit < > DP - Dew Point in Fahrenheit < > RH - Relative Humidity in Percent < > WIND - Direction (from) and Speed in MPH < > PRES - Mean Sea Level Pressure (inches of Hg) < > WCI - Wind Chill Index < > VSB - VISIBILITY IN MILES < > HX - HEAT INDEX < > TC - TEMPERATURE IN CELSIUS < > VRB - VARIABLE WIND DIRECTION < > < >>>>>>>>>>>>>>>>>>>>>>>>>>>> KEY <<<<<<<<<<<<<<<<<<<<<<<<<<<

USA.gov is the U.S. government's official web portal to all federal, state and local government web resources and services.